• In Romania
  • List of Countries
  • For 7 days
  • Water Temperature
  • Satellite Maps
  • Weather Map
  • Weather Widgets
  • user-avatar
    Login

    Hourly Weather Quito

    Today, 29 March, Wednesday

    Time Temperature Precipitation Wind Pressure Humidity
    00:00 +16°C° 0.2 mm 1 mps 622 mmHg 96%
    01:00 +16°C° 0 mm 1 mps 622 mmHg 97%
    02:00 +16°C° 0.1 mm 1 mps 622 mmHg 97%
    03:00 +16°C° 0.1 mm 1 mps 622 mmHg 97%
    04:00 +15°C° 0.1 mm 2 mps 621 mmHg 97%
    05:00 +16°C° 0 mm 2 mps 622 mmHg 96%
    06:00 +16°C° 0 mm 2 mps 622 mmHg 95%
    07:00 +17°C° 0 mm 2 mps 623 mmHg 93%
    08:00 +19°C° 0 mm 3 mps 623 mmHg 83%
    09:00 +21°C° 0 mm 3 mps 624 mmHg 74%
    10:00 +22°C° 0 mm 4 mps 624 mmHg 64%
    11:00 +23°C° 0.1 mm 4 mps 624 mmHg 60%
    12:00 +26°C° 0.1 mm 4 mps 624 mmHg 56%
    13:00 +27°C° 0.1 mm 4 mps 624 mmHg 53%
    14:00 +26°C° 0.1 mm 3 mps 623 mmHg 54%
    15:00 +26°C° 0.1 mm 3 mps 622 mmHg 56%
    16:00 +26°C° 0.1 mm 3 mps 622 mmHg 57%
    17:00 +24°C° 0.2 mm 3 mps 622 mmHg 66%
    18:00 +20°C° 0.2 mm 2 mps 621 mmHg 75%
    19:00 +18°C° 0.2 mm 2 mps 621 mmHg 85%
    20:00 +17°C° 0.2 mm 2 mps 621 mmHg 87%
    21:00 +17°C° 0.2 mm 2 mps 621 mmHg 90%
    22:00 +16°C° 0.2 mm 1 mps 622 mmHg 93%
    23:00 +16°C° 0.1 mm 1 mps 621 mmHg 93%

    Tomorrow, 30 March, Thursday

    Time Temperature Precipitation Wind Pressure Humidity
    00:00 +15°C° 0.1 mm 1 mps 621 mmHg 94%
    01:00 +15°C° 0.1 mm 1 mps 621 mmHg 95%
    02:00 +15°C° 0.1 mm 1 mps 621 mmHg 95%
    03:00 +15°C° 0.1 mm 1 mps 621 mmHg 95%
    04:00 +14°C° 0.1 mm 1 mps 621 mmHg 96%
    05:00 +15°C° 0 mm 1 mps 621 mmHg 94%
    06:00 +16°C° 0 mm 1 mps 622 mmHg 93%
    07:00 +18°C° 0 mm 1 mps 623 mmHg 91%
    08:00 +18°C° 0.1 mm 2 mps 623 mmHg 85%
    09:00 +20°C° 0.1 mm 3 mps 624 mmHg 78%
    10:00 +22°C° 0.1 mm 4 mps 624 mmHg 72%
    11:00 +22°C° 0.2 mm 4 mps 624 mmHg 69%
    12:00 +23°C° 0.2 mm 4 mps 623 mmHg 66%
    13:00 +25°C° 0.2 mm 4 mps 623 mmHg 63%
    14:00 +25°C° 0.4 mm 3 mps 623 mmHg 68%
    15:00 +24°C° 0.4 mm 3 mps 622 mmHg 74%
    16:00 +22°C° 0.4 mm 3 mps 622 mmHg 80%
    17:00 +21°C° 0.3 mm 2 mps 622 mmHg 84%
    18:00 +20°C° 0.3 mm 2 mps 622 mmHg 89%
    19:00 +19°C° 0.3 mm 1 mps 622 mmHg 94%
    20:00 +19°C° 0.2 mm 1 mps 623 mmHg 95%
    21:00 +18°C° 0.2 mm 1 mps 623 mmHg 96%
    22:00 +18°C° 0.2 mm 1 mps 623 mmHg 97%
    23:00 +18°C° 0.7 mm 1 mps 623 mmHg 97%

    Day after tomorrow, 31 March, Friday

    Time Temperature Precipitation Wind Pressure Humidity
    00:00 +18°C° 0.7 mm 1 mps 623 mmHg 97%
    01:00 +16°C° 0.7 mm 1 mps 623 mmHg 97%
    02:00 +16°C° 0.4 mm 1 mps 622 mmHg 97%
    03:00 +16°C° 0.4 mm 1 mps 622 mmHg 97%
    04:00 +16°C° 0.4 mm 1 mps 622 mmHg 98%
    05:00 +16°C° 0 mm 1 mps 622 mmHg 97%
    06:00 +18°C° 0 mm 1 mps 623 mmHg 97%
    07:00 +18°C° 0 mm 1 mps 623 mmHg 96%
    08:00 +18°C° 0.1 mm 2 mps 624 mmHg 90%
    09:00 +19°C° 0.1 mm 3 mps 624 mmHg 84%
    10:00 +21°C° 0.1 mm 4 mps 625 mmHg 78%
    11:00 +21°C° 0.4 mm 4 mps 625 mmHg 75%
    12:00 +22°C° 0.4 mm 4 mps 624 mmHg 73%
    13:00 +23°C° 0.4 mm 4 mps 624 mmHg 70%
    14:00 +22°C° 0.4 mm 3 mps 623 mmHg 75%
    15:00 +23°C° 0.4 mm 2 mps 623 mmHg 80%
    16:00 +21°C° 0.4 mm 2 mps 623 mmHg 85%
    17:00 +20°C° 0.2 mm 1 mps 622 mmHg 89%
    18:00 +19°C° 0.2 mm 1 mps 622 mmHg 93%
    19:00 +16°C° 0.2 mm 1 mps 622 mmHg 96%
    20:00 +16°C° 1.2 mm 1 mps 623 mmHg 96%
    21:00 +17°C° 1.2 mm 2 mps 624 mmHg 96%
    22:00 +17°C° 1.2 mm 2 mps 624 mmHg 96%
    23:00 +16°C° 0 mm 2 mps 624 mmHg 96%

    1 April, Saturday

    Time Temperature Precipitation Wind Pressure Humidity
    00:00 +15°C° 0 mm 2 mps 623 mmHg 96%
    01:00 +15°C° 0 mm 1 mps 623 mmHg 96%
    02:00 +14°C° 0 mm 1 mps 622 mmHg 96%
    03:00 +14°C° 0 mm 1 mps 622 mmHg 95%
    04:00 +14°C° 0 mm 1 mps 622 mmHg 95%
    05:00 +15°C° 0 mm 1 mps 622 mmHg 93%
    06:00 +14°C° 0 mm 0 mps 623 mmHg 91%
    07:00 +15°C° 0 mm 0 mps 624 mmHg 89%
    08:00 +19°C° 0 mm 1 mps 624 mmHg 82%
    09:00 +21°C° 0 mm 1 mps 625 mmHg 75%
    10:00 +21°C° 0 mm 2 mps 626 mmHg 68%
    11:00 +23°C° 0.2 mm 2 mps 625 mmHg 66%
    12:00 +24°C° 0.2 mm 2 mps 625 mmHg 64%
    13:00 +24°C° 0.2 mm 3 mps 624 mmHg 62%
    14:00 +24°C° 0.1 mm 2 mps 624 mmHg 67%
    15:00 +23°C° 0.1 mm 2 mps 623 mmHg 72%
    16:00 +22°C° 0.1 mm 1 mps 623 mmHg 77%
    17:00 +21°C° 0 mm 1 mps 623 mmHg 82%
    18:00 +20°C° 0 mm 1 mps 623 mmHg 87%
    19:00 +19°C° 0 mm 1 mps 623 mmHg 91%
    20:00 +18°C° 0 mm 1 mps 623 mmHg 93%
    21:00 +16°C° 0 mm 1 mps 623 mmHg 94%
    22:00 +16°C° 0 mm 1 mps 623 mmHg 96%
    23:00 +16°C° 1 mm 1 mps 623 mmHg 96%

    2 April, Sunday

    Time Temperature Precipitation Wind Pressure Humidity
    00:00 +16°C° 1 mm 1 mps 623 mmHg 97%
    01:00 +16°C° 1 mm 1 mps 622 mmHg 97%
    02:00 +15°C° 0.2 mm 1 mps 622 mmHg 98%
    03:00 +15°C° 0.2 mm 1 mps 622 mmHg 98%
    04:00 +15°C° 0.2 mm 1 mps 622 mmHg 98%
    05:00 +15°C° 0.1 mm 1 mps 622 mmHg 97%
    06:00 +16°C° 0.1 mm 1 mps 623 mmHg 97%
    07:00 +16°C° 0.1 mm 1 mps 624 mmHg 96%
    08:00 +19°C° 0.2 mm 1 mps 624 mmHg 89%
    09:00 +20°C° 0.2 mm 2 mps 625 mmHg 82%
    10:00 +22°C° 0.2 mm 3 mps 626 mmHg 74%
    11:00 +22°C° 0.3 mm 3 mps 625 mmHg 71%
    12:00 +24°C° 0.3 mm 3 mps 624 mmHg 67%
    13:00 +25°C° 0.3 mm 3 mps 624 mmHg 63%
    14:00 +24°C° 0.3 mm 3 mps 623 mmHg 68%
    15:00 +23°C° 0.3 mm 2 mps 623 mmHg 73%
    16:00 +23°C° 0.3 mm 2 mps 623 mmHg 78%
    17:00 +21°C° 0.1 mm 1 mps 622 mmHg 83%
    18:00 +20°C° 0.1 mm 1 mps 622 mmHg 88%
    19:00 +18°C° 0.1 mm 1 mps 622 mmHg 94%
    20:00 +18°C° 0.1 mm 1 mps 622 mmHg 94%
    21:00 +16°C° 0.1 mm 1 mps 622 mmHg 94%
    22:00 +16°C° 0.1 mm 1 mps 622 mmHg 95%
    23:00 +15°C° 0.2 mm 1 mps 622 mmHg 95%

    3 April, Monday

    Time Temperature Precipitation Wind Pressure Humidity
    00:00 +15°C° 0.2 mm 1 mps 622 mmHg 95%
    01:00 +14°C° 0.2 mm 1 mps 621 mmHg 95%
    02:00 +14°C° 0 mm 1 mps 621 mmHg 95%
    03:00 +14°C° 0 mm 1 mps 621 mmHg 95%
    04:00 +14°C° 0 mm 1 mps 621 mmHg 95%
    05:00 +15°C° 0 mm 1 mps 622 mmHg 93%
    06:00 +16°C° 0 mm 1 mps 622 mmHg 91%
    07:00 +18°C° 0 mm 1 mps 623 mmHg 90%
    08:00 +19°C° 0 mm 2 mps 624 mmHg 77%
    09:00 +21°C° 0 mm 3 mps 625 mmHg 64%
    10:00 +23°C° 0 mm 4 mps 625 mmHg 51%
    11:00 +25°C° 0.1 mm 4 mps 625 mmHg 50%
    12:00 +26°C° 0.1 mm 4 mps 624 mmHg 50%
    13:00 +27°C° 0.1 mm 4 mps 624 mmHg 49%
    14:00 +26°C° 0.1 mm 4 mps 623 mmHg 52%
    15:00 +26°C° 0.1 mm 3 mps 623 mmHg 56%
    16:00 +25°C° 0.1 mm 3 mps 623 mmHg 59%
    17:00 +23°C° 0.3 mm 2 mps 622 mmHg 67%
    18:00 +20°C° 0.3 mm 2 mps 622 mmHg 75%
    19:00 +18°C° 0.3 mm 2 mps 622 mmHg 83%
    20:00 +17°C° 0.1 mm 2 mps 622 mmHg 85%
    21:00 +16°C° 0.1 mm 1 mps 622 mmHg 87%
    22:00 +16°C° 0.1 mm 1 mps 622 mmHg 90%
    23:00 +15°C° 0.1 mm 1 mps 622 mmHg 90%
    Show more